Location: Lecco
(45.8566°N, 9.3977°E)
Time: 13:10:43
(UTC+02:00)

Vanguard 1 Rocket - All Passes

Search period start: 17 October 2019 00:00
Search period end: 27 October 2019 00:00
Orbit: 650 x 4226 km, 34.3° (Epoch: 13 October)

Date Brightness Start Highest point End Pass type
(mag) Time Alt. Az. Time Alt. Az. Time Alt. Az.
17 Oct - 09:12:46 10° SE 09:17:58 12° ESE 09:24:06 10° E daylight
17 Oct - 11:28:29 10° SSW 11:42:26 41° SE 12:03:57 10° E daylight
17 Oct - 13:52:26 10° WSW 14:11:23 60° S 14:36:47 10° E daylight
17 Oct - 16:20:01 10° W 16:42:52 57° SSW 17:05:59 10° SE daylight
17 Oct - 18:51:18 10° W 19:12:24 34° SW 19:30:01 10° SSE visible
18 Oct - 10:19:18 10° S 10:30:28 28° SE 10:47:20 10° E daylight
18 Oct - 12:41:06 10° SW 12:57:21 54° SSE 13:21:52 10° E daylight
18 Oct - 15:07:05 10° W 15:28:05 61° S 15:52:58 10° ESE daylight
18 Oct - 17:36:20 10° W 17:58:56 45° SSW 18:19:35 10° SSE daylight
18 Oct - 20:11:59 10° W 20:26:11 18° SW 20:38:26 10° SSW visible
19 Oct - 09:12:08 10° SSE 09:19:24 16° SE 09:29:00 10° E daylight
19 Oct - 11:30:35 10° SW 11:44:13 45° SSE 12:06:13 10° E daylight
19 Oct - 13:54:57 10° WSW 14:13:26 61° S 14:38:55 10° ESE daylight
19 Oct - 16:22:33 10° W 16:44:42 53° SSW 17:07:52 10° SE daylight
19 Oct - 18:54:16 10° W 19:13:47 29° SW 19:30:52 10° S visible
20 Oct - 10:21:01 10° SSW 10:32:07 33° SE 10:49:54 10° E daylight
20 Oct - 12:43:32 10° WSW 12:59:22 57° SSE 13:24:00 10° E daylight
20 Oct - 15:09:39 10° W 15:30:05 59° SSW 15:54:58 10° ESE daylight
20 Oct - 17:39:02 10° W 18:00:30 40° SW 18:20:57 10° SSE daylight
20 Oct - 20:17:24 10° W 20:27:24 14° WSW 20:36:34 10° SSW visible
21 Oct - 09:12:52 10° S 09:20:58 20° SE 09:32:35 10° E daylight
21 Oct - 11:32:53 10° SW 11:46:10 49° SSE 12:08:24 10° E daylight
21 Oct - 13:57:32 10° WSW 14:15:32 61° S 14:40:59 10° ESE daylight
21 Oct - 16:25:10 10° W 16:46:30 49° SSW 17:09:31 10° SE daylight
21 Oct - 18:57:40 10° W 19:15:07 24° SW 19:31:07 10° S visible
22 Oct - 10:23:01 10° SSW 10:33:57 37° SE 10:52:17 10° E daylight
22 Oct - 12:46:06 10° WSW 13:01:29 58° S 13:26:05 10° E daylight
22 Oct - 15:12:18 10° W 15:32:04 55° SSW 15:56:47 10° SE daylight
22 Oct - 17:41:54 10° W 18:02:02 34° SW 18:21:55 10° SSE daylight
23 Oct - 09:14:16 10° S 09:22:40 24° SE 09:35:36 10° E daylight
23 Oct - 11:35:20 10° SW 11:48:15 52° SSE 12:10:30 10° E daylight
23 Oct - 14:00:12 10° WSW 14:17:40 59° S 14:42:55 10° ESE daylight
23 Oct - 16:27:54 10° W 16:48:15 44° SSW 17:10:52 10° SSE daylight
23 Oct - 19:01:48 10° W 19:16:26 19° SW 19:30:28 10° SSW visible
24 Oct - 08:08:14 10° SE 08:12:08 12° ESE 08:16:50 10° ESE daylight
24 Oct - 10:25:16 10° SW 10:35:56 41° SSE 10:54:32 10° E daylight
24 Oct - 12:48:45 10° WSW 13:03:41 59° S 13:28:05 10° ESE daylight
24 Oct - 15:15:01 10° W 15:34:02 51° SSW 15:58:24 10° SE daylight
24 Oct - 17:45:06 10° W 18:03:33 29° SW 18:22:24 10° S daylight
25 Oct - 09:16:05 10° SSW 09:24:32 28° SE 09:38:17 10° E daylight
25 Oct - 11:37:55 10° WSW 11:50:26 54° SSE 12:12:34 10° E daylight
25 Oct - 14:02:55 10° W 14:19:49 56° S 14:44:43 10° ESE daylight
25 Oct - 16:30:48 10° W 16:49:58 38° SSW 17:11:54 10° SSE daylight
25 Oct - 19:07:27 10° WSW 19:17:49 14° SW 19:28:04 10° SSW visible
26 Oct - 08:08:32 10° SSE 08:13:54 16° SE 08:21:09 10° E daylight
26 Oct - 10:27:42 10° SW 10:38:02 45° SSE 10:56:43 10° E daylight
26 Oct - 12:51:29 10° WSW 13:05:57 58° S 13:30:00 10° ESE daylight
26 Oct - 15:17:48 10° W 15:36:00 47° SSW 15:59:46 10° SE daylight
26 Oct - 17:48:45 10° W 18:05:04 24° SW 18:22:11 10° S daylight
